Simultaneous Nadir Overpasses (SNOs) Predictions

Prediction of SNOs between GOES-16 and LANDSAT-8 Satellite Orbit:

Table of predicted SNOs for the next 14.0 days since TLE Epoch: 10/17/2020
Index Date Time (GOES-16) GOES-16 Lat,Lon LANDSAT-8 Lat,Lon Distance(km) Time Diff (sec)
1 10/18/2020 15:00:45 -0.03, -75.19 -0.63, -72.45 312.54 80
2 10/19/2020 03:24:49 0.03, -75.17 -0.49, -77.63 279.80 80
3 10/21/2020 03:09:58 0.03, -75.17 0.16, -74.68 56.58 80
4 10/23/2020 02:57:46 0.02, -75.17 0.75, -71.71 393.31 80
5 10/23/2020 15:21:01 -0.02, -75.19 0.32, -76.88 190.74 39
6 10/25/2020 15:06:50 -0.01, -75.21 -0.28, -73.91 147.12 80
7 10/26/2020 03:30:53 0.01, -75.19 -0.83, -79.10 444.54 80
8 10/27/2020 14:54:39 -0.01, -75.23 -0.93, -70.96 485.79 80
9 10/28/2020 03:18:43 0.01, -75.22 -0.18, -76.15 105.68 80
10 10/30/2020 03:03:51 0.01, -75.25 0.43, -73.18 233.90 80
11 10/30/2020 15:27:46 -0.01, -75.27 0.65, -78.35 349.60 80
